KG6SIB Weather Reports


time (UTC)temp
F
wind
direction
speed
knots
gust
knots
rain 1hr
in
rain 24hr
in
rain mn
in
humidity
%
barometer
mb
20260506114126 35 74 1.7 4.3 0.00 0.34 0.00 93 1015.8
20260506113626 36 61 1.7 4.3 0.00 0.34 0.00 93 1016.0
20260506113126 36 12 3.5 4.3 0.00 0.34 0.00 93 1015.9
20260506111626 36 74 3.5 4.3 0.00 0.34 0.00 92 1015.8
20260506110625 36 69 3.5 5.2 0.00 0.35 0.00 92 1015.8
20260506110126 36 65 4.3 5.2 0.00 0.35 0.00 92 1015.8
20260506105126 36 32 3.5 4.3 0.00 0.35 0.00 92 1016.3
20260506104626 36 52 2.6 4.3 0.00 0.35 0.00 92 1016.2
20260506104126 36 32 2.6 4.3 0.00 0.35 0.00 92 1016.4
20260506103625 36 19 2.6 5.2 0.00 0.35 0.00 92 1016.3
20260506103125 36 42 4.3 5.2 0.00 0.35 0.00 92 1016.2
20260506102625 36 50 1.7 3.5 0.00 0.36 0.00 92 1016.2
20260506102125 36 56 2.6 4.3 0.00 0.37 0.00 92 1016.2
20260506101625 36 65 1.7 4.3 0.00 0.37 0.00 92 1016.1
20260506101125 36 62 2.6 4.3 0.00 0.37 0.00 92 1016.1
20260506100625 36 44 3.5 3.5 0.00 0.37 0.00 92 1016.0
20260506100125 37 30 1.7 3.5 0.00 0.37 0.00 91 1016.1
20260506095625 37 26 2.6 3.5 0.00 0.38 0.00 91 1015.8
20260506095125 37 36 2.6 3.5 0.00 0.38 0.00 91 1015.9
20260506094125 37 34 3.5 3.5 0.00 0.39 0.00 91 1015.8
20260506093624 37 37 1.7 3.5 0.00 0.39 0.00 91 1015.9
20260506092625 38 22 2.6 3.5 0.00 0.41 0.00 91 1016.0
20260506092125 38 21 1.7 3.5 0.00 0.41 0.00 91 1016.1
20260506091124 38 15 3.5 4.3 0.00 0.43 0.00 91 1016.1
20260506090624 38 19 3.5 4.3 0.00 0.43 0.00 91 1016.1
20260506090125 38 163 0.9 4.3 0.00 0.44 0.00 91 1016.1
20260506085625 39 194 0.9 2.6 0.00 0.44 0.00 91 1015.7
20260506085124 39 198 0.9 2.6 0.00 0.45 0.00 91 1015.8
20260506084624 39 201 0.9 2.6 0.00 0.45 0.00 90 1015.9
20260506084124 40 232 0.0 0.0 0.00 0.45 0.00 91 1015.9
20260506083624 40 232 0.0 0.0 0.00 0.45 0.00 91 1016.0
20260506082624 41 232 0.0 0.0 0.00 0.45 0.00 91 1016.3
20260506082124 41 232 0.0 0.0 0.00 0.45 0.00 91 1016.4
20260506081624 41 232 0.0 0.0 0.00 0.45 0.00 91 1016.6
20260506081124 41 232 0.0 0.0 0.00 0.45 0.00 91 1016.5
20260506080624 41 232 0.0 0.0 0.00 0.45 0.00 91 1016.6
20260506080124 42 232 0.0 0.0 0.00 0.45 0.00 91 1016.6
20260506073123 44 232 0.0 0.0 0.00 0.45 0.00 91 1016.8
20260506072624 45 232 0.0 0.9 0.00 0.45 0.00 92 1016.9
20260506071623 45 232 0.0 2.6 0.00 0.45 0.00 92 1017.0
20260506071123 45 232 0.0 4.3 0.00 0.45 0.00 92 1017.0
20260506070623 45 232 1.7 4.3 0.00 0.45 0.00 92 1017.0
20260506070154 45 237 1.7 2.6 0.00 0.45 0.00 91 1016.9
20260506062123 45 238 0.0 2.6 0.00 0.45 0.45 91 1016.5
20260506061623 45 238 0.0 3.5 0.00 0.45 0.45 91 1016.5
20260506061122 45 238 1.7 3.5 0.00 0.45 0.45 91 1016.4
20260506060623 45 238 1.7 3.5 0.00 0.45 0.45 91 1016.6
20260506060123 46 238 0.9 3.5 0.00 0.45 0.45 91 1016.8
20260506051122 46 240 0.0 4.3 0.00 0.45 0.45 90 1016.7
20260506050622 46 243 0.0 4.3 0.00 0.45 0.45 90 1016.7
20260506050152 46 246 2.6 4.3 0.00 0.45 0.45 90 1016.7
20260506044622 46 236 0.9 5.2 0.00 0.45 0.45 89 1016.3
20260506044121 46 235 0.9 4.3 0.00 0.45 0.45 89 1016.3
20260506043622 46 242 0.9 7.0 0.00 0.45 0.45 88 1016.1
20260506042622 46 240 3.5 4.3 0.00 0.45 0.45 88 1016.1
20260506041621 46 229 0.0 6.1 0.00 0.45 0.45 88 1016.0
20260506040622 46 239 0.0 2.6 0.00 0.45 0.45 87 1015.9
20260506040152 46 238 1.7 2.6 0.00 0.45 0.45 87 1015.8
20260506035652 46 240 0.0 3.5 0.00 0.45 0.45 87 1015.8
20260506034651 47 225 0.0 5.2 0.00 0.45 0.45 87 1015.6
20260506034151 47 223 2.6 5.2 0.00 0.45 0.45 87 1015.5
20260506033651 47 242 0.0 4.3 0.00 0.45 0.45 86 1015.5
20260506033151 47 244 0.0 4.3 0.00 0.45 0.45 86 1015.4
20260506032151 47 240 0.9 5.2 0.00 0.45 0.45 86 1015.3
20260506031651 47 240 1.7 5.2 0.00 0.45 0.45 86 1015.2
20260506031151 47 240 3.5 7.0 0.00 0.45 0.45 86 1015.2
20260506025650 47 238 5.2 7.8 0.00 0.45 0.45 85 1014.8
20260506025150 47 217 3.5 7.8 0.00 0.45 0.45 85 1014.7
20260506024151 47 253 4.3 7.8 0.00 0.45 0.45 84 1014.7
20260506023650 48 242 3.5 8.7 0.00 0.45 0.45 84 1014.6
20260506023150 48 234 0.0 8.7 0.00 0.45 0.45 83 1014.5
20260506022150 48 231 2.6 8.7 0.00 0.45 0.45 83 1014.5
20260506021650 48 228 2.6 8.7 0.00 0.45 0.45 82 1014.4
20260506020650 48 240 5.2 8.7 0.00 0.45 0.45 81 1014.4
20260506015650 49 225 2.6 7.0 0.00 0.45 0.45 80 1014.3
20260506015150 49 231 3.5 9.6 0.00 0.45 0.45 80 1014.3
20260506014650 49 228 2.6 9.6 0.00 0.45 0.45 80 1014.3
20260506014149 49 229 6.1 8.7 0.00 0.45 0.45 79 1014.2
20260506013650 49 219 1.7 10.4 0.00 0.45 0.45 78 1014.2
20260506013150 49 219 5.2 10.4 0.00 0.45 0.45 78 1014.2
20260506012649 49 243 5.2 7.8 0.00 0.45 0.45 77 1014.2
20260506012150 50 221 6.1 12.2 0.00 0.45 0.45 75 1014.2
20260506011649 50 234 0.9 12.2 0.00 0.45 0.45 74 1014.1
20260506011149 51 230 5.2 11.3 0.00 0.45 0.45 74 1014.3
20260506010650 51 225 7.0 12.2 0.00 0.45 0.45 75 1014.2
20260506005649 50 236 2.6 10.4 0.00 0.45 0.45 74 1013.9
20260506005149 50 197 4.3 10.4 0.00 0.45 0.45 74 1013.9
20260506004149 51 216 7.0 11.3 0.00 0.45 0.45 71 1014.2
20260506003649 51 215 4.3 12.2 0.00 0.45 0.45 72 1014.2
20260506003149 52 226 5.2 13.0 0.00 0.45 0.45 70 1014.2
20260506002649 53 229 6.1 14.8 0.00 0.45 0.45 70 1014.4
20260506002149 53 207 1.7 14.8 0.00 0.45 0.45 69 1014.3
20260506001648 52 215 2.6 11.3 0.00 0.45 0.45 71 1013.8
20260506001148 51 247 3.5 11.3 0.00 0.45 0.45 74 1013.9
20260506000648 51 210 4.3 11.3 0.00 0.45 0.45 73 1014.1
20260506000148 52 219 8.7 13.0 0.00 0.45 0.45 72 1013.9
20260505235648 52 225 5.2 15.6 0.00 0.45 0.45 71 1014.1
20260505235148 53 251 4.3 15.6 0.00 0.45 0.45 69 1014.0
20260505234649 53 263 11.3 13.9 0.00 0.45 0.45 70 1014.1
20260505233649 53 237 8.7 13.9 0.00 0.45 0.45 71 1014.1
20260505232648 54 244 6.1 14.8 0.00 0.45 0.45 68 1014.3
20260505232148 54 230 6.1 12.2 0.00 0.45 0.45 73 1014.3
20260505231648 53 210 5.2 12.2 0.00 0.45 0.45 71 1014.1
20260505231148 53 242 8.7 13.0 0.00 0.45 0.45 68 1014.2
20260505230648 55 201 6.1 16.5 0.00 0.45 0.45 66 1014.4
20260505230148 56 203 6.1 16.5 0.00 0.45 0.45 66 1014.7
20260505225147 54 204 4.3 13.0 0.00 0.45 0.45 74 1014.4
20260505224647 53 221 1.7 13.0 0.00 0.45 0.45 71 1014.3
20260505224147 55 201 7.8 13.9 0.00 0.45 0.45 67 1014.6
20260505223647 56 217 7.8 14.8 0.00 0.45 0.45 68 1014.8
20260505223147 56 237 9.6 14.8 0.00 0.45 0.45 71 1014.9
20260505222647 55 240 7.8 13.9 0.00 0.45 0.45 72 1014.7
20260505222147 54 229 9.6 13.9 0.00 0.45 0.45 70 1014.7
20260505221647 55 190 3.5 12.2 0.00 0.45 0.45 73 1014.8
20260505220647 54 269 7.8 13.0 0.00 0.45 0.45 77 1014.9
20260505220147 54 225 3.5 13.0 0.00 0.45 0.45 77 1014.9
20260505215647 54 227 3.5 13.0 0.00 0.45 0.45 77 1014.7
20260505215147 54 242 7.0 13.0 0.00 0.45 0.45 79 1014.7
20260505214647 53 224 3.5 13.0 0.00 0.45 0.45 82 1014.8
20260505214147 53 246 6.1 14.8 0.00 0.45 0.45 79 1014.8
20260505212646 52 217 3.5 12.2 0.00 0.45 0.45 84 1014.7
20260505212147 52 240 7.0 12.2 0.00 0.45 0.45 88 1014.8
20260505211147 50 232 2.6 11.3 0.00 0.45 0.45 88 1014.5
20260505210646 50 213 6.1 13.0 0.00 0.45 0.45 91 1014.6
20260505210146 49 215 7.0 13.0 0.00 0.45 0.45 91 1014.6
20260505205646 49 214 7.0 12.2 0.00 0.45 0.45 92 1014.4
20260505205146 49 243 7.0 10.4 0.00 0.45 0.45 94 1014.3
20260505204646 49 238 4.3 10.4 0.00 0.45 0.45 94 1014.4
20260505204146 49 181 2.6 10.4 0.00 0.45 0.45 94 1014.4
20260505203646 48 226 6.1 14.8 0.00 0.45 0.45 94 1014.5
20260505203147 49 194 7.8 14.8 0.00 0.45 0.45 95 1014.4
20260505202646 49 226 2.6 14.8 0.00 0.45 0.45 95 1014.4
20260505202146 49 236 3.5 9.6 0.00 0.45 0.45 95 1014.3
20260505201646 48 234 6.1 9.6 0.00 0.45 0.45 95 1014.4
20260505201146 48 232 2.6 9.6 0.00 0.45 0.45 95 1014.5
20260505200646 47 236 4.3 9.6 0.00 0.45 0.45 95 1014.2
20260505200146 47 183 2.6 9.6 0.00 0.45 0.45 95 1014.2
20260505195646 46 229 5.2 10.4 0.00 0.45 0.45 95 1014.4
20260505195146 47 244 9.6 10.4 0.00 0.45 0.45 95 1014.5
20260505194646 47 222 1.7 3.5 0.00 0.45 0.45 95 1014.5
20260505194146 47 210 0.9 6.1 0.00 0.45 0.45 95 1014.5
20260505193646 46 231 0.9 6.1 0.01 0.45 0.45 95 1014.3
20260505192646 46 252 1.7 7.0 0.03 0.45 0.45 95 1014.6
20260505192146 46 236 2.6 7.8 0.07 0.45 0.45 95 1014.5
20260505191651 46 243 2.6 7.8 0.08 0.45 0.45 95 1014.5
20260505191145 46 242 2.6 7.8 0.08 0.45 0.45 95 1014.4
20260505185645 46 238 2.6 7.0 0.08 0.45 0.45 95 1014.5
20260505184645 45 242 3.5 10.4 0.09 0.45 0.45 95 1014.5
20260505184146 45 243 0.9 10.4 0.10 0.45 0.45 95 1014.5
20260505182645 45 205 1.7 6.1 0.07 0.42 0.42 95 1014.4
20260505182145 46 234 2.6 4.3 0.03 0.38 0.38 95 1014.3
20260505181645 45 178 0.9 5.2 0.02 0.37 0.37 95 1014.1
20260505181145 46 170 4.3 7.8 0.02 0.37 0.37 95 1014.2
20260505175645 46 223 5.2 10.4 0.03 0.37 0.37 95 1014.1
20260505173644 46 240 7.0 9.6 0.03 0.35 0.35 95 1013.8
20260505173144 46 234 4.3 9.6 0.03 0.35 0.35 95 1013.9
20260505172644 46 243 1.7 10.4 0.03 0.35 0.35 95 1013.9
20260505171644 46 230 10.4 11.3 0.04 0.35 0.35 95 1013.7
20260505171144 46 246 7.8 11.3 0.05 0.35 0.35 95 1013.7
20260505170644 46 217 6.1 11.3 0.06 0.35 0.35 95 1013.6
20260505170144 46 238 1.7 7.8 0.08 0.34 0.34 95 1013.6
20260505165644 46 228 5.2 7.8 0.09 0.34 0.34 95 1013.4
20260505165144 46 242 2.6 7.8 0.10 0.34 0.34 95 1013.4
20260505164644 46 241 5.2 9.6 0.09 0.33 0.33 95 1013.3
20260505164144 45 242 4.3 9.6 0.10 0.33 0.33 95 1013.3
20260505163644 45 249 7.0 8.7 0.09 0.32 0.32 95 1013.1
20260505163144 45 238 3.5 10.4 0.09 0.32 0.32 95 1013.2
20260505162643 45 240 7.0 10.4 0.09 0.32 0.32 94 1013.2
20260505162144 45 240 7.8 13.0 0.08 0.31 0.31 95 1013.1
20260505161643 45 225 3.5 13.0 0.08 0.31 0.31 95 1013.0
20260505161144 45 249 4.3 13.9 0.07 0.30 0.30 94 1012.9
20260505160644 46 233 0.0 13.9 0.06 0.29 0.29 94 1012.9
20260505160144 46 219 4.3 11.3 0.03 0.26 0.26 95 1012.7
20260505153144 46 252 2.6 8.7 0.00 0.23 0.23 95 1012.8
20260505152643 46 233 1.7 6.1 0.00 0.23 0.23 95 1012.8
20260505151643 46 229 1.7 6.1 0.00 0.23 0.23 95 1012.8
20260505151143 45 227 1.7 7.8 0.00 0.23 0.23 94 1012.7
20260505150643 45 250 0.9 7.8 0.01 0.23 0.23 94 1012.6
20260505150142 45 234 1.7 8.7 0.02 0.23 0.23 95 1012.6
20260505140642 45 213 6.1 9.6 0.04 0.22 0.22 94 1012.3
20260505140142 45 239 5.2 10.4 0.03 0.21 0.21 94 1012.3
20260505124641 46 227 8.7 13.0 0.07 0.18 0.18 94 1012.2
20260505124142 46 202 8.7 12.2 0.07 0.18 0.18 94 1012.3
20260505123641 46 243 5.2 12.2 0.05 0.16 0.16 94 1012.1
20260505122641 46 227 0.9 10.4 0.05 0.16 0.16 94 1012.2
20260505122141 46 242 2.6 12.2 0.05 0.16 0.16 94 1012.2
20260505121641 46 245 7.0 13.0 0.05 0.16 0.16 94 1012.1
20260505121141 46 228 7.0 13.0 0.05 0.16 0.16 94 1012.1
20260505120641 46 242 7.0 11.3 0.05 0.15 0.15 94 1012.1
20260505120141 46 231 2.6 11.3 0.04 0.14 0.14 94 1012.0
20260505115640 46 263 5.2 11.3 0.02 0.12 0.12 94 1012.1
20260505115141 46 219 8.7 11.3 0.01 0.11 0.11 94 1012.1
20260505114641 46 253 1.7 9.6 0.01 0.11 0.11 94 1012.1